[[[{"header":{"parameterUnit":"kt","parameterCategory":2,"dx":1,"dy":1,"la1":30.253999710083008,"la2":30.299108505249023,"lo1":-89.0895004272461,"lo2":-89.04439544677734,"nx":28,"ny":28,"refTime":"2022-09-19T21:00:00:Z","depth":0,"parameterNumber":1,"parameterNumberName":"U-component_of_WINDS"},"data":[2.9974,3.0154,3.0207,3.0437,3.0524,3.0691,3.0768,3.0873,3.0972,3.1178,3.1307,3.1382,3.1503,3.1671,3.1815,3.1845,3.1901,3.1924,3.1955,3.1802,3.1784,3.1767,3.1725,3.1936,3.1937,3.2105,3.2106,3.2108,2.985,2.9937,3.0076,3.0246,3.0365,3.0373,3.051,3.0609,3.0759,3.0883,3.1014,3.1202,3.1358,3.1475,3.1635,3.1722,3.1736,3.1761,3.1753,3.1772,3.1611,3.1566,3.1747,3.1747,3.1747,3.1747,3.1746,3.1746,2.9639,2.9746,2.9879,3.0031,3.0132,3.0246,3.0358,3.0446,3.0584,3.0756,3.0797,3.0969,3.1105,3.1327,3.1416,3.1553,3.1535,3.1581,3.1592,3.1601,3.1601,3.1343,3.1584,3.1584,3.1584,3.1583,3.1583,0,2.9499,2.9536,2.9674,2.9827,2.9941,3.0066,3.019,3.0261,3.0362,3.0473,3.0637,3.0742,3.0949,3.1111,3.1275,3.1361,3.1382,3.1393,3.1424,3.1403,3.1362,3.1381,3.1111,3.1385,3.1384,3.1383,3.1382,3.1381,2.9286,2.9406,2.9574,2.9663,2.9745,2.9889,2.9986,3.0067,3.0167,3.0334,3.0426,3.059,3.0725,3.0983,3.1088,3.1245,3.1257,3.1354,3.1281,3.1256,3.1254,3.1244,3.1255,3.1366,3.1368,3.1369,3.1371,0,2.9159,2.9248,2.9453,2.9609,2.9652,2.9774,2.9909,3.0021,3.0097,3.0262,3.0306,3.0425,3.0587,3.0678,3.0884,3.0926,3.1129,3.1139,3.108,3.1086,3.1179,3.1168,3.1476,3.1519,3.1306,3.1308,3.1309,0,2.901,2.9167,2.9289,2.9404,2.958,2.9657,2.983,2.9912,3.003,3.0162,3.0201,3.0324,3.0422,3.0559,3.0623,3.0805,3.0846,3.0888,3.0902,3.0882,3.0876,3.0936,3.0923,3.0936,3.0934,3.0933,3.0932,0,2.8799,2.9052,2.9239,2.931,2.9494,2.9581,2.9662,2.9797,2.9893,3.0033,3.0096,3.0256,3.0342,3.0465,3.0544,3.049,3.0772,3.0714,3.0814,3.0812,3.087,3.0865,3.1117,3.0929,3.0929,3.0928,3.0928,0,2.8692,2.883,2.909,2.9242,2.9305,2.9431,2.959,2.9719,2.9858,2.9906,3.0018,3.0055,3.0225,3.016,3.0396,3.0302,3.0385,3.0442,3.0451,3.047,3.0393,3.0519,3.0753,3.0779,3.0488,3.0485,3.0482,0,2.8424,2.8711,2.8778,2.9025,2.917,2.9201,2.9343,2.9465,2.954,2.9675,2.9759,2.9914,2.9886,2.9947,3.0052,3.0145,3.0267,3.0132,3.0324,3.033,3.028,3.0498,3.0508,3.0692,3.0436,3.0441,3.0445,0,2.8227,2.8449,2.8489,2.8573,2.8748,2.8871,2.9034,2.9203,2.9288,2.9426,2.9563,2.9786,2.9772,2.9874,2.9922,3.0027,3.0187,2.9999,3.0004,3.0026,3.0423,3.043,3.0461,3.0196,3.0202,3.0206,3.0409,0,2.8036,2.8193,2.8305,2.8492,2.8602,2.8764,2.8859,2.8962,2.8995,2.907,2.9278,2.9407,2.9583,2.9645,2.9681,2.9892,2.987,2.9855,2.9797,2.9941,3.001,3.0038,2.9686,2.9685,2.9684,2.9684,0,0,2.7755,2.7982,2.8053,2.8213,2.8309,2.8341,2.8505,2.8604,2.8803,2.8869,2.8838,2.917,2.9278,2.9519,2.9572,2.9646,2.9691,2.9639,2.9873,2.9893,2.9913,2.9985,3.0013,2.9682,2.9682,2.9681,2.9681,0,2.7704,2.781,2.7971,2.8075,2.8232,2.8305,2.8343,2.8506,2.8562,2.8767,2.8792,2.8929,2.9196,2.9304,2.9394,2.9612,2.9623,2.966,2.9742,2.986,2.9882,2.9902,2.9976,3.0002,2.9679,2.9679,2.9679,0,2.7524,2.7642,2.7731,2.7953,2.8058,2.8208,2.8169,2.8332,2.8445,2.8476,2.8678,2.8764,2.892,2.9138,2.924,2.9214,2.9555,2.9468,2.9476,2.9489,2.9609,2.9635,2.9658,2.935,2.9348,2.9347,0,0,2.7467,2.7614,2.7767,2.795,2.8013,2.8124,2.8215,2.8257,2.8395,2.845,2.856,2.8694,2.8849,2.895,2.9101,2.9328,2.9366,2.9423,2.9439,2.9451,2.947,2.9593,2.9619,2.9341,2.9341,2.9341,0,0,2.744,2.7623,2.7632,2.7856,2.7984,2.8149,2.8257,2.8273,2.8418,2.841,2.8494,2.8534,2.874,2.8825,2.8733,2.9082,2.9023,2.9047,2.9019,2.904,2.9055,2.903,2.8714,0,0,0,0,0,2.7436,2.76,2.7606,2.7658,2.7942,2.8144,2.8182,2.8252,2.8207,2.8291,2.8385,2.8393,2.8791,2.8713,2.8764,2.8865,2.9264,2.9278,2.9291,2.9308,2.9329,2.9347,0,0,0,0,0,0,2.7457,2.752,2.7602,2.7772,2.7836,2.8139,2.8078,2.8102,2.82,2.8197,2.8374,2.8398,2.8464,2.8691,2.8737,2.8831,2.8698,2.927,2.9281,2.9292,2.9315,2.9332,2.9347,0,0,0,0,0,2.7474,2.7524,2.7961,2.777,2.7826,2.7959,2.8072,2.8092,2.8169,2.8317,2.8341,2.8213,2.8465,2.8508,2.8719,2.8808,2.8668,2.8684,2.9277,2.9286,2.9294,2.9324,0,0,0,0,0,0,2.7486,2.7545,2.7974,2.7994,2.7713,2.7944,2.7982,2.8083,2.8283,2.8309,2.8159,2.8155,2.8468,2.8501,2.8534,2.8796,2.8642,2.8659,2.867,2.9284,2.9291,2.9298,0,0,0,0,0,0,2.7518,2.7561,2.7984,2.7908,2.792,2.7929,2.7963,2.8154,2.8285,2.8115,2.8118,2.8155,2.8419,2.8496,2.8522,2.8817,2.8623,2.8639,2.8651,2.8658,2.929,2.9296,0,0,0,0,0,0,2.7537,2.7575,2.7904,2.7913,2.7923,2.8151,2.8099,2.8387,2.8217,2.8106,2.8204,2.8198,2.8415,2.8442,2.8514,2.8798,2.8812,2.8624,2.8635,2.8643,2.8648,0,0,0,0,0,0,0,2.7553,2.7287,2.7856,2.7917,2.7925,2.8177,2.8182,2.8188,2.8215,2.821,2.8205,2.82,2.8531,2.8548,2.8566,2.8782,0,0,2.8622,2.863,0,0,0,0,0,0,0,0,2.7273,2.7283,2.7857,2.7861,2.7865,2.8178,2.8182,2.8186,2.8215,2.821,2.8206,2.8202,2.8536,2.855,2.8564,0,0,0,0,0,0,0,0,0,0,0,0,0,0,0,2.7857,2.7861,0,2.8178,2.8182,2.8186,2.8214,2.8211,2.8207,2.8204,2.854,2.8551,2.8563,0,0,0,0,0,0,0,0,0,0,0,0,0,0,0,0,0,0,0,0,0,0,0,0,0,0,0,0,0,0,0,0,0,0,0,0,0,0,0,0,0,0,0,0,0,0,0,0,0,0,0,0,0,0,0,0,0,0,0,0,0,0,0,0,0,0,0,0,0]}],[{"header":{"parameterUnit":"kt","parameterCategory":2,"dx":1,"dy":1,"la1":30.253999710083008,"la2":30.299108505249023,"lo1":-89.0895004272461,"lo2":-89.04439544677734,"nx":28,"ny":28,"refTime":"2022-09-19T21:00:00:Z","depth":0,"parameterNumber":2,"parameterNumberName":"V-component_of_WINDS"},"data":[3.0226,3.0238,3.0213,3.0214,3.0192,3.0188,3.0178,3.0163,3.0145,3.0136,3.0126,3.0103,3.0074,3.0056,3.0043,3.0032,3.0027,3.0047,3.003,2.9965,2.9954,2.9943,2.9938,3.0047,3.0048,3.01,3.0101,3.0101,3.0172,3.0151,3.0146,3.0124,3.0118,3.0083,3.0063,3.006,3.0057,3.0036,3.0027,3.0017,3.0006,2.9971,2.9956,2.9958,2.994,2.9955,2.9953,2.9948,2.9878,2.9872,2.997,2.997,2.997,2.997,2.997,2.997,3.0067,3.0076,3.0049,3.0043,3.0026,3.0011,3.0015,2.9987,2.9981,2.9965,2.9938,2.9935,2.9909,2.9881,2.9866,2.9861,2.9839,2.9848,2.985,2.9851,2.9855,2.9772,2.9858,2.9858,2.9858,2.9857,2.9857,0,2.9981,2.996,2.9955,2.9942,2.9936,2.9925,2.9909,2.9912,2.986,2.9859,2.9853,2.9846,2.9831,2.9822,2.9804,2.9787,2.9749,2.9745,2.975,2.9759,2.9769,2.9758,2.964,2.9742,2.9741,2.974,2.974,2.9739,2.9868,2.9884,2.9846,2.9845,2.9832,2.9833,2.9827,2.9782,2.9778,2.9753,2.9763,2.9755,2.9746,2.9742,2.9709,2.9698,2.9679,2.972,2.9677,2.9685,2.9673,2.9671,2.967,2.9728,2.9729,2.973,2.9731,0,2.9806,2.9768,2.9785,2.9747,2.9738,2.9756,2.9722,2.973,2.9703,2.971,2.9709,2.9667,2.9663,2.9623,2.9613,2.9591,2.9614,2.9599,2.9621,2.9614,2.9642,2.9638,2.9752,2.9762,2.9653,2.9654,2.9655,0,2.9692,2.9716,2.9658,2.967,2.9693,2.9647,2.9671,2.9651,2.963,2.9635,2.9588,2.9594,2.9544,2.9543,2.9513,2.9526,2.9526,2.9509,2.95,2.9511,2.9512,2.9506,2.9498,2.9486,2.9486,2.9485,2.9485,0,2.9595,2.9595,2.9615,2.9609,2.9571,2.9582,2.9567,2.9544,2.9541,2.9531,2.9527,2.952,2.9515,2.9508,2.9469,2.9441,2.9487,2.944,2.9468,2.9469,2.9478,2.9478,2.9591,2.9484,2.9484,2.9484,2.9484,0,2.9497,2.9489,2.9527,2.9492,2.9494,2.951,2.9497,2.9502,2.9482,2.9464,2.9456,2.942,2.9433,2.9388,2.9403,2.9376,2.9373,2.936,2.9361,2.9357,2.9307,2.937,2.9486,2.9494,2.9355,2.9354,2.9353,0,2.9392,2.9422,2.9383,2.942,2.9428,2.9372,2.9388,2.9373,2.9351,2.9353,2.9328,2.9332,2.9292,2.9288,2.9301,2.9275,2.9309,2.927,2.9268,2.9268,2.9269,2.9376,2.9401,2.9466,2.9339,2.9341,2.9342,0,2.9306,2.9263,2.9273,2.9262,2.9237,2.9245,2.9265,2.9259,2.9262,2.9254,2.9265,2.9275,2.9241,2.9237,2.9208,2.9224,2.9284,2.9188,2.9186,2.9201,2.9332,2.9353,2.9365,2.9261,2.9262,2.9264,2.9331,0,2.9155,2.9168,2.9195,2.9179,2.918,2.9204,2.9164,2.917,2.914,2.9117,2.9138,2.9119,2.9115,2.9121,2.9094,2.9145,2.9129,2.9097,2.9048,2.9121,2.9141,2.9151,2.902,2.9018,2.9017,2.9016,0,0,2.9061,2.9079,2.9038,2.9056,2.9054,2.8997,2.9026,2.9018,2.9004,2.9002,2.8976,2.8985,2.8972,2.9002,2.9022,2.9023,2.9026,2.9004,2.9088,2.9096,2.9104,2.9127,2.9137,2.9013,2.9013,2.9013,2.9012,0,2.8997,2.8987,2.9017,2.9006,2.8989,2.8964,2.8971,2.8945,2.8931,2.8955,2.8907,2.8916,2.893,2.8918,2.8915,2.9,2.8963,2.9003,2.9059,2.9076,2.9086,2.9095,2.9119,2.9129,2.9009,2.9009,2.9009,0,2.8901,2.8882,2.8894,2.889,2.8879,2.8892,2.883,2.8849,2.8856,2.8796,2.882,2.8805,2.879,2.8826,2.8842,2.8817,2.8907,2.8875,2.8883,2.8883,2.8897,2.8909,2.892,2.8776,2.8775,2.8775,0,0,2.8851,2.8864,2.8831,2.8873,2.887,2.8833,2.8837,2.8809,2.8797,2.8793,2.8773,2.8763,2.8768,2.8773,2.8778,2.8825,2.8815,2.8848,2.8859,2.8868,2.8873,2.889,2.8902,2.8772,2.8772,2.8772,0,0,2.8827,2.8789,2.8762,2.8807,2.8797,2.8767,2.8794,2.8761,2.8761,2.8754,2.8708,2.8703,2.8737,2.8726,2.8696,2.8759,2.8712,2.8719,2.8765,2.8778,2.8789,2.879,2.8631,0,0,0,0,0,2.8741,2.8793,2.8769,2.8771,2.8768,2.8781,2.878,2.8743,2.8709,2.873,2.8708,2.867,2.8699,2.8671,2.8674,2.8707,2.874,2.8745,2.8751,2.8821,2.8836,2.8848,0,0,0,0,0,0,2.8742,2.8744,2.8768,2.8741,2.874,2.8779,2.8712,2.8703,2.8705,2.8697,2.8675,2.8669,2.8638,2.8668,2.8671,2.8702,2.863,2.8742,2.8747,2.8751,2.8826,2.8838,2.8848,0,0,0,0,0,2.8742,2.8744,2.8749,2.874,2.8739,2.8702,2.871,2.8702,2.8703,2.867,2.8662,2.8675,2.864,2.864,2.8669,2.8702,2.8628,2.8629,2.8745,2.8749,2.8752,2.8832,0,0,0,0,0,0,2.8742,2.8736,2.8748,2.8747,2.8718,2.8698,2.8694,2.8701,2.8674,2.8667,2.8666,2.8661,2.8642,2.8642,2.8642,2.8704,2.8626,2.8627,2.8628,2.8748,2.8751,2.8754,0,0,0,0,0,0,2.8735,2.8735,2.8747,2.8722,2.8717,2.8696,2.8692,2.8713,2.8675,2.8672,2.8666,2.8664,2.8642,2.8643,2.8643,2.8677,2.8625,2.8626,2.8627,2.8627,2.8751,2.8753,0,0,0,0,0,0,2.8734,2.8735,2.8722,2.8718,2.8714,2.8692,2.8714,2.8713,2.8652,2.8674,2.8646,2.8643,2.8645,2.8644,2.8644,2.8679,2.8678,2.8625,2.8625,2.8626,2.8626,0,0,0,0,0,0,0,2.8734,2.8741,2.8758,2.8715,2.8711,2.8731,2.873,2.873,2.8652,2.8649,2.8647,2.8644,2.8618,2.8619,2.862,2.868,0,0,2.8624,2.8625,0,0,0,0,0,0,0,0,2.874,2.8741,2.8758,2.8758,2.8758,2.8731,2.873,2.873,2.8651,2.8649,2.8647,2.8645,2.8618,2.8619,2.862,0,0,0,0,0,0,0,0,0,0,0,0,0,0,0,2.8758,2.8758,0,2.8731,2.873,2.873,2.8651,2.8649,2.8648,2.8646,2.8619,2.8619,2.862,0,0,0,0,0,0,0,0,0,0,0,0,0,0,0,0,0,0,0,0,0,0,0,0,0,0,0,0,0,0,0,0,0,0,0,0,0,0,0,0,0,0,0,0,0,0,0,0,0,0,0,0,0,0,0,0,0,0,0,0,0,0,0,0,0,0,0,0,0]}]]]